カタログに戻る

STARLINK-31595

運用中通信VLEO
NORAD 59273·PAYLOAD·🇺🇸 United States

打ち上げ Mar 19, 2024 から Vandenberg Space Force Base

Loading…

次のパス (今後24時間)

TLE

最新Source: CelesTrak SupGP

元期: Sep 14, 2026, 21:10 UTC

1 59273C 24050V   26257.88243056  .00030667  00000+0  90614-3 0  2576
2 59273  53.1611  21.6259 0001153  78.6669 270.4447 15.34372920    17

AllMySatでSTARLINK-31595をリアルタイム追跡

Download on the App Store